Location: Newark
(48.8833°N, 0.9236°W)
Time: 01:11:54
(UTC+00:00)

Tiros 1 despin weight - Pass Details

Date: 21 November 2019
Orbit: 594 x 642 km, 48.2° (Epoch: 06 December)

Event Time Altitude Azimuth Distance (km) Brightness Sun altitude
Rises 16:27:32 0° 279° (W) 2,838 ? -2.3°
Reaches altitude 10° 16:29:49 10° 277° (W) 1,939 ? -2.7°
Maximum altitude 16:34:13 66° 195° (SSW) 663 ? -3.3°
Drops below altitude 10° 16:38:40 10° 114° (ESE) 1,959 ? -4.0°
Sets 16:41:00 0° 112° (ESE) 2,870 ? -4.3°
